This demonstration page uses our WeatherBlox Daily Observations layout. Learn more.

38.88101, -77.10428

Hourly Observations for March 3, 2016

Temp ( °F °C ) Dew Point ( °F °C ) Humidity (%) Winds ( mph kmh ) Pressure ( in mb ) Visibility ( mi km ) Precip ( " mm )
12:52 am 00:52 Clear 30 -1 16 -9 55 55 NNW 8 13 30.21 1023 10 16.09344 0 0
1:52 am 01:52 Clear 30 -1 14 -10 51 51 NW 10 17 30.21 1023 10 16.09344 0 0
2:52 am 02:52 Clear 30 -1 14 -10 51 51 NNW 8 13 30.24 1024 10 16.09344 0 0
3:20 am 03:20 Partly Cloudy 30 -1 14 -10 51 51 NW 7 11 30.24 1024 10 16.09344 0 0
3:52 am 03:52 Partly Cloudy 30 -1 14 -10 51 51 NW 8 13 30.24 1024 10 16.09344 0 0
4:52 am 04:52 Mostly Cloudy 30 -1 14 -10 51 51 NNW 7 11 30.27 1025 10 16.09344 0 0
5:52 am 05:52 Cloudy 30 -1 14 -10 51 51 N 7 11 30.27 1025 10 16.09344 0 0
6:52 am 06:52 Mostly Cloudy 30 -1 16 -9 55 55 ENE 9 15 30.3 1026 10 16.09344 0 0
7:52 am 07:52 Mostly Cloudy 32 0 16 -9 51 51 ENE 7 11 30.3 1026 10 16.09344 0 0
8:52 am 08:52 Mostly Cloudy 36 2 16 -9 44 44 Calm 30.33 1027 10 16.09344 0 0
9:52 am 09:52 Cloudy 34 1 18 -8 51 51 SSE 5 7 30.33 1027 10 16.09344 0 0
10:52 am 10:52 Cloudy 36 2 18 -8 48 48 ESE 6 9 30.3 1026 10 16.09344 0 0
11:52 am 11:52 Cloudy 37 3 18 -8 45 45 N 3 6 30.3 1026 10 16.09344 0 0
12:52 pm 12:52 Cloudy 37 3 16 -9 41 41 E 5 7 30.24 1024 10 16.09344 0 0
1:52 pm 13:52 Cloudy 39 4 16 -9 39 39 Calm 30.21 1023 10 16.09344 0 0
2:52 pm 14:52 Cloudy 41 5 16 -9 36 36 SW 5 7 30.21 1023 10 16.09344 0 0
3:52 pm 15:52 Cloudy 41 5 16 -9 36 36 SSW 8 13 30.21 1023 10 16.09344 0 0
4:52 pm 16:52 Cloudy 39 4 19 -7 45 45 SSW 5 7 30.18 1022 10 16.09344 0 0
5:19 pm 17:19 Cloudy 39 4 21 -6 48 48 SE 10 17 30.21 1023 10 16.09344 0 0
5:33 pm 17:33 Cloudy 39 4 21 -6 48 48 ESE 10 17 30.21 1023 10 16.09344 0 0
5:52 pm 17:52 Cloudy 39 4 21 -6 48 48 ESE 13 20 30.21 1023 10 16.09344 0 0
6:52 pm 18:52 Cloudy with Light Snow 39 4 21 -6 48 48 S 10 17 30.21 1023 10 16.09344 0.001 0.001
7:52 pm 19:52 Cloudy with Light Snow 36 2 27 -3 70 70 S 15 24 30.21 1023 9 14.484096 0.001 0.001
8:44 pm 20:44 Cloudy with Light Snow 36 2 28 -2 75 75 SSE 9 15 30.21 1023 3 4.828032 0 0
8:48 pm 20:48 Cloudy with Light Snow 36 2 28 -2 75 75 SSE 10 17 30.21 1023 2.5 4.02336 0 0
8:52 pm 20:52 Cloudy with Light Snow 34 1 28 -2 81 81 SE 10 17 30.18 1022 2.5 4.02336 0.001 0.001
8:59 pm 20:59 Cloudy with Light Snow 34 1 28 -2 81 81 SSE 8 13 30.21 1023 3 4.828032 0.001 0.001
9:11 pm 21:11 Cloudy with Light Snow 34 1 28 -2 81 81 SE 7 11 30.18 1022 5 8.04672 0.001 0.001
9:52 pm 21:52 Cloudy with Light Snow 34 1 28 -2 81 81 SE 7 11 30.18 1022 9 14.484096 0.001 0.001
10:49 pm 22:49 Cloudy with Light Snow 34 1 28 -2 81 81 SE 6 9 30.18 1022 2 3.218688 0.001 0.001
10:52 pm 22:52 Cloudy with Light Snow 34 1 30 -1 87 87 SSE 5 7 30.18 1022 2 3.218688 0.001 0.001
10:59 pm 22:59 Cloudy with Light Snow 34 1 30 -1 87 87 SE 6 9 30.18 1022 2 3.218688 0.001 0.001
11:12 pm 23:12 Cloudy with Light Snow 34 1 30 -1 87 87 ESE 5 7 30.18 1022 2 3.218688 0 0
11:40 pm 23:40 Cloudy with Light Snow 34 1 30 -1 87 87 SSE 5 7 30.15 1021 2 3.218688 0 0
11:52 pm 23:52 Cloudy with Light Snow 32 0 30 -1 93 93 SSE 5 7 30.15 1021 2 3.218688 0.02 0.508

Powered by AerisWeather